Showing default

ICEYE-X43, 60539

Orbit data source: Space-Track

ICEYE-X43, 60539 is a Brazilian payload satellite in SSO that was launched on Fri, 16 Aug 2024 UTC via an FALCON 9 launch vehicle from the Air Force Western Test Range (AFWTR). Payload-class satellites include a variety of spacecraft equipped with specific instruments for various scientific and technological missions. These include communications satellites like Starlink; space stations such as the ISS; scientific satellites like the Hubble; Earth observation satellites from companies like Planet Labs, Umbra, and HawkEye 360; GPS; miniature CubeSats for education and research; and military/defense satellites.

Loading next visibility...
Identifier
60539, 2024-149BZ
Orbit
SSO
Country
Flag of BRBR / BRAZ
Related business
Manufacturer
ICEYE
Mission
Operational Commercial Radar Imaging
Bus & Motor
ICEYE, Unknown motor
Mass
80 kg wet, 80 kg dry
Launch date (UTC)
2024-08-16 (2 years ago)
Launch vehicle
FALCON 9
Launch site
Air Force Western Test Range (AFWTR)
Object type
Payload
Rocket body
Debris
Shape & HBR
Box + 1 Pan, 1.4 m
Radar Cross Section
0.776 m², Medium (>0.1 m² and < 1m²)

Expand to show TLE details & history
Last TLE update: 16 hours ago

TLE from 16 hours ago
0 ICEYE-X43
1 60539U 24149BZ  26207.46017731  .00001657  00000-0  13872-3 0  9992
2 60539  97.6764 283.8954 0006520 296.3988  63.6566 14.99800511106008
Epoch: 2026-07-26T11:02Z
TLE epoch observation values (Epoch: 2026-07-26T11:02:39.319Z)
Latitude
-0.00001°
Longitude
174.07378°
Altitude
568.56 km
Speed
7.578 km/s
True Right ascension
18h 55m 34s
True Declination
0° 00' 00"
Sunlit
Object was in full shadow at epoch
Visualization orbit readout
Latitude
Unknown
Longitude
Unknown
Altitude
Unknown
Speed
Unknown
Apparent Right ascension
Unknown
Apparent Declination
Unknown
Sunlit
N/A
Visualization observer readout
Local Sidereal Time
15:55:22
Azimuth
Unknown
Elevation
Unknown
Doppler factor
Unknown
Orbital elements
Apogee altitude
569.043 km
Perigee altitude
559.99 km
Semi-major axis
6,942.654 km
Eccentricity
0.00065
Inclination
97.6764°
RAAN
283.8954°
Arg. of periapsis
296.3988°
True anomaly
63.72358°
Mean anomaly
63.6566°
Eccentric anomaly
63.69009°
Mean motion
3.75193 °/min
Orbital period
95.95 mins
BSTAR
0.00013872
Loading maneuver chart data...
Computing Atmospheric mass density...
Loading historical data...
Loading historical data...
Loading historical data...
Loading historical data...
Loading historical data...
Loading historical data...
Loading historical data...

Documentation

Showing up to 5 results
|